CDT,Max TemperatureF,Mean TemperatureF,Min TemperatureF,Max Dew PointF,MeanDew PointF,Min DewpointF,Max Humidity, Mean Humidity, Min Humidity, Max Sea Level PressureIn, Mean Sea Level PressureIn, Min Sea Level PressureIn, Max VisibilityMiles, Mean VisibilityMiles, Min VisibilityMiles, Max Wind SpeedMPH, Mean Wind SpeedMPH, Max Gust SpeedMPH,PrecipitationIn, CloudCover, Events, WindDirDegrees
2011-10-1,69,58,46,46,41,35,93,62,30,30.15,30.08,30.01,10,10,10,17,5,28,0.00,0,,346
2011-10-2,70,57,43,45,40,36,96,62,28,30.19,30.15,30.11,10,10,10,14,3,26,0.00,0,,339
2011-10-3,76,59,41,51,42,34,93,57,21,30.26,30.20,30.16,10,10,10,9,2,13,0.00,0,,334
2011-10-4,79,62,45,55,48,41,93,62,31,30.29,30.22,30.18,10,10,10,7,1,12,0.00,0,,10
2011-10-5,83,67,50,59,53,50,96,64,31,30.26,30.20,30.14,10,10,9,7,1,9,0.00,0,,71
2011-10-6,82,68,54,56,55,53,93,66,39,30.25,30.21,30.16,10,10,8,10,2,14,0.00,0,,105
2011-10-7,81,71,60,55,52,50,78,57,35,30.34,30.26,30.22,10,10,10,9,4,18,0.00,0,,79
2011-10-8,81,70,59,58,54,51,80,60,39,30.34,30.27,30.20,10,10,10,13,4,18,0.00,0,,83
2011-10-9,73,67,60,60,55,47,78,65,52,30.26,30.18,30.11,10,10,10,12,4,21,T,3,Rain,76
2011-10-10,76,70,63,63,60,57,93,76,58,30.09,30.01,29.94,10,9,2,13,6,22,0.11,6,Rain,58
2011-10-11,66,65,63,63,61,59,93,89,84,29.94,29.90,29.88,10,7,2,8,3,15,0.03,8,Rain,35
2011-10-12,67,64,61,63,61,58,100,87,73,29.90,29.86,29.79,10,8,5,6,1,8,0.01,8,,54
2011-10-13,73,64,54,63,59,54,100,77,53,29.82,29.74,29.67,10,10,6,13,5,20,0.01,5,Rain,219
2011-10-14,79,64,49,54,49,42,100,64,28,30.01,29.92,29.83,10,10,10,13,2,21,0.00,0,,310
2011-10-15,80,65,49,54,50,47,96,63,30,30.14,30.08,30.03,10,10,10,10,2,17,0.00,0,,326
2011-10-16,85,66,47,56,50,43,100,62,24,30.17,30.09,30.03,10,10,10,7,1,10,0.00,0,,245
2011-10-17,85,68,50,59,54,49,96,64,32,30.03,29.94,29.82,10,10,8,8,1,14,0.00,0,,0
2011-10-18,79,65,50,67,60,51,100,84,67,29.81,29.70,29.57,10,9,2,21,4,29,0.10,3,Rain,261
2011-10-19,58,52,46,49,42,35,100,72,43,29.89,29.71,29.62,10,9,3,18,10,26,0.02,7,Rain,300
2011-10-20,58,49,39,40,38,34,92,68,43,30.12,30.00,29.90,10,10,10,14,5,21,0.00,2,,285
2011-10-21,65,50,34,42,36,32,100,65,30,30.22,30.16,30.12,10,10,9,14,2,18,0.00,0,,298
2011-10-22,68,52,36,43,37,33,92,60,27,30.22,30.15,30.09,10,10,10,9,1,15,0.00,0,,23
2011-10-23,71,54,37,55,44,36,93,62,31,30.14,30.08,30.05,10,10,10,9,1,16,T,3,,65
2011-10-24,76,62,48,54,50,47,89,63,36,30.22,30.14,30.09,10,10,10,12,2,15,T,3,,4
2011-10-25,78,61,44,52,46,41,93,61,29,30.26,30.18,30.10,10,10,9,8,1,12,0.00,0,,142
2011-10-26,79,62,44,51,48,43,93,62,31,30.13,30.03,29.96,10,10,10,14,3,23,0.00,0,,203
2011-10-27,78,63,48,59,54,47,96,71,45,29.97,29.93,29.87,10,9,5,10,4,21,0.00,1,,301
2011-10-28,61,54,47,55,51,41,93,85,77,30.07,29.97,29.92,10,10,6,14,6,21,0.01,7,Rain,336
2011-10-29,62,49,36,41,34,27,92,61,29,30.19,30.14,30.08,10,10,10,16,5,25,0.00,1,,350
2011-10-30,64,48,32,36,33,28,96,62,27,30.30,30.23,30.18,10,10,10,13,2,17,0.00,0,,122
2011-10-31,68,51,33,41,35,31,96,63,29,30.25,30.21,30.15,10,10,10,8,1,13,0.00,0,,310